Regional Weather Roundup
Issued by NWS Jackson, KY

Home | Current Version | Previous Version | Graphics & Text | Print | Product List | Glossary On
Versions: 1 2 3 4 5 6 7 8 9 10 11 12 13 14 15 16 17 18 19 20 21 22 23 24 25 26 27
000
ASUS43 KJKL 261210
RWRJKL

EAST KENTUCKY HOURLY WEATHER ROUNDUP
NATIONAL WEATHER SERVICE JACKSON KY
800 AM EDT FRI AUG 26 2016

NOTE: "FAIR" INDICATES FEW OR NO CLOUDS BELOW 12,000 FEET WITH
NO SIGNIFICANT WEATHER AND/OR OBSTRUCTIONS TO VISIBILITY.

* THESE REPORTS ARE NOT UNDER NWS QUALITY CONTROL AND MAY NOT
  REPORT WEATHER SUCH AS PRECIPITATION AND FOG.

KYZ079-080-083-085-087-088-110-112-115-119-120-261300
...EASTERN KENTUCKY...

CITY           SKY/WX    TMP DP  RH WIND       PRES   REMARKS
JACKSON        MOSUNNY   73  71  93 CALM      30.19R
6HR MIN TEMP:  72; 6HR MAX TEMP:  75;

LONDON         PTSUNNY   71  69  93 MISG      30.18R FOG
6HR MIN TEMP:  70; 6HR MAX TEMP:  73;

SOMERSET*      MOSUNNY   70  70 100 CALM      30.17S FOG
MONTICELLO*    PTCLDY   N/A N/A N/A NE9       30.18R FOG
WILLIAMSBURG*  CLOUDY    70  70 100 CALM      30.17S VSB<1/4
MIDDLESBORO*   FOG       70  70 100 CALM      30.19S VSB 1/2
6HR MIN TEMP:  70; 6HR MAX TEMP:  72;

HARLAN APT*    CLOUDY    70  68  94 CALM      30.21R
PIKE CO APT*     N/A     70  70 100 CALM      30.19S
BIG SANDY APT* MOSUNNY   72  72 100 CALM      30.18R
6HR MIN TEMP:  71; 6HR MAX TEMP:  75;

MOREHEAD APT*  FOG       72  70  94 S3        30.17S VSB<1/4
$$

KYZ035-036-041-042-044-050-067-078-099-261300
...CENTRAL KENTUCKY...

CITY           SKY/WX    TMP DP  RH WIND       PRES   REMARKS
MT STERLING*   SUNNY     70  70 100 S3        30.17S FOG
FLEMING/MASON* SUNNY     72  70  95 CALM      30.16S
DANVILLE*      PTCLDY    70  70 100 CALM      30.16S FOG
LEXINGTON      SUNNY     71  68  90 S5        30.15S
6HR MIN TEMP:  69; 6HR MAX TEMP:  75;

FRANKFORT      CLEAR     72  68  87 CALM      30.13S
6HR MIN TEMP:  69; 6HR MAX TEMP:  73;

LOUISVILLE     PTCLDY    75  71  87 CALM      30.12R
6HR MIN TEMP:  74; 6HR MAX TEMP:  80;

LEBANON*         N/A     73  72  94 CALM      30.14F
GLASGOW*       CLOUDY    72  72 100 CALM      30.13S FOG
BOWLING GREEN  CLEAR     75  73  93 CALM      30.12S FOG
6HR MIN TEMP:  73; 6HR MAX TEMP:  78;

$$

KYZ091>093-OHZ055-061-077-WVZ005-015-034-035-042-261300
...SOUTHERN OHIO/WEST VIRGINIA...

CITY           SKY/WX    TMP DP  RH WIND       PRES   REMARKS
COVINGTON      MOSUNNY   72  71  97 CALM      30.14R
COLUMBUS       MOSUNNY   73  71  93 CALM      30.13R
DAYTON         MOSUNNY   73  72  96 CALM      30.15R
WILMINGTON     MOSUNNY   71  71 100 CALM      30.15R FOG
HUNTINGTON     SUNNY     73  71  93 S3        30.14S FOG
CHARLESTON     PTSUNNY   71  70  96 CALM      30.15R FOG
PINEVILLE*     FOG       69  66  90 MISG      30.25S VSB 1/4
BECKLEY        SUNNY     70  68  93 CALM      30.23S
BLUEFIELD      SUNNY     69  67  93 W6        30.26S
LOGAN CO APT*  FOG       70  70 100 CALM      30.18S VSB<1/4
$$

VAZ002-007-008-TNZ017-027-036-066-071-261300
...SOUTHWEST VIRGINIA/EAST TENNESSEE...

CITY           SKY/WX    TMP DP  RH WIND       PRES   REMARKS
WISE*          MOSUNNY   70  70 100 CALM      30.27S
JONESVILLE*    FOG       68  68 100 CALM      30.22R VSB<1/4
ABINGDON*      SUNNY     70  70 100 CALM      30.23S FOG
BRISTOL        FOG       69  68  96 CALM      30.20R VSB 1/16
MORRISTOWN*    SUNNY     72  70  94 NE3       30.17R
SEVIERVILLE*   SUNNY     70  68  94 CALM      30.15S
KNOXVILLE      MOSUNNY   74  71  91 N3        30.14R
CROSSVILLE     CLEAR     69  68  96 CALM      30.20R
NASHVILLE      MOCLDY    75  74  96 CALM      30.12S FOG
$$

...KEY TO REMARKS...
VSB - VISIBILITY IN MILES
WCI - WIND CHILL INDEX
HX  - HEAT INDEX

$$




USA.gov is the U.S. government's official web portal to all federal, state and local government web resources and services.